This demonstration page uses our WeatherBlox Daily Observations layout. Learn more.

Left ArrowRight Arrow

39.12711, -84.51439

Hourly Observations for December 2, 2018

Temp ( °F °C ) Dew Point ( °F °C ) Humidity (%) Winds ( mph kmh ) Pressure ( in mb ) Visibility ( mi km ) Precip ( " mm )
12:23 am 00:23 Cloudy 57 13.9 56 13.3 96 96 S 8 13 29.53 1000 10 16 0.00 0.00
12:53 am 00:53 Mostly Cloudy 57 13.9 55 12.8 93 93 VRB 6 9 29.51 999 10 16 0.00 0.00
1:27 am 01:27 Mostly Cloudy 56 13.3 55 12.8 97 97 S 9 15 29.50 999 10 16 0.00 0.00
1:53 am 01:53 Mostly Cloudy 57 13.9 55 12.8 93 93 SSW 8 13 29.52 1000 10 16 0.00 0.00
2:53 am 02:53 Clear 55 12.8 54 12.2 96 96 S 10 17 29.54 1000 10 16 0.00 0.00
3:53 am 03:53 Clear 54 12.2 52 11.1 93 93 SSW 8 13 29.53 1000 10 16 0.00 0.00
4:53 am 04:53 Clear 54 12.2 52 11.1 93 93 SSW 10 17 29.53 1000 10 16 0.00 0.00
5:53 am 05:53 Clear 51 10.6 50 10 96 96 SSW 8 13 29.54 1000 10 16 0.00 0.00
6:53 am 06:53 Clear 50 10 49 9.4 96 96 SW 7 11 29.55 1001 10 16 0.00 0.00
7:53 am 07:53 Sunny 50 10 49 9.4 96 96 S 9 15 29.55 1001 10 16 0.00 0.00
8:53 am 08:53 Sunny 54 12.2 49 9.4 83 83 SSW 12 19 29.54 1001 10 16 0.00 0.00
9:53 am 09:53 Sunny 57 13.9 49 9.4 74 74 S 18 30 29.54 1001 10 16 0.00 0.00
10:53 am 10:53 Sunny 60 15.6 48 8.9 65 65 S 20 31 29.54 1000 10 16 0.00 0.00
11:53 am 11:53 Sunny 62 16.7 48 8.9 60 60 S 20 31 29.49 999 10 16 0.00 0.00
12:53 pm 12:53 Mostly Sunny 65 18.3 47 8.3 52 52 S 16 26 29.45 997 10 16 0.00 0.00
1:53 pm 13:53 Partly Cloudy 66 18.9 43 6.1 43 43 SSW 28 44 29.44 997 10 16 0.00 0.00
2:53 pm 14:53 Partly Cloudy 65 18.3 42 5.6 43 43 SW 22 35 29.43 997 10 16 0.00 0.00
3:53 pm 15:53 Partly Cloudy 63 17.2 38 3.3 40 40 WSW 21 33 29.47 998 10 16 0.00 0.00
4:53 pm 16:53 Mostly Cloudy 61 16.1 38 3.3 43 43 WSW 14 22 29.50 999 10 16 0.00 0.00
5:53 pm 17:53 Mostly Cloudy 56 13.3 41 5 57 57 W 14 22 29.56 1001 10 16 0.00 0.00
6:53 pm 18:53 Partly Cloudy 51 10.6 37 2.8 59 59 W 17 28 29.63 1003 10 16 0.00 0.00
7:53 pm 19:53 Partly Cloudy 49 9.4 35 1.7 59 59 WSW 16 26 29.67 1005 10 16 0.00 0.00
8:53 pm 20:53 Mostly Clear 48 8.9 33 0.6 56 56 W 18 30 29.70 1006 10 16 0.00 0.00
9:53 pm 21:53 Mostly Clear 46 7.8 34 1.1 63 63 WSW 14 22 29.72 1006 10 16 0.00 0.00
10:53 pm 22:53 Mostly Clear 45 7.2 34 1.1 66 66 WSW 20 31 29.75 1007 10 16 0.00 0.00
11:53 pm 23:53 Cloudy 44 6.7 34 1.1 68 68 WSW 13 20 29.78 1008 10 16 0.00 0.00

Powered by AerisWeather